Location: Praha
(50.0830°N, 14.4670°E)
Time: 06:09:56
(UTC+01:00)

ISS - Pass Details

Date: 12 December 2025
Orbit: 416 x 421 km, 51.6° (Epoch: 07 December)

Event Time Altitude Azimuth Distance (km) Brightness Sun altitude
Rises 06:25:01 0° 192° (SSW) 2,354 0.2 -13.1°
Reaches altitude 10° 06:28:11 10° 159° (SSE) 1,496 -0.3 -12.6°
Maximum altitude 06:29:30 12° 136° (SE) 1,389 0.0 -12.4°
Drops below altitude 10° 06:30:49 10° 113° (ESE) 1,501 0.6 -12.2°
Sets 06:34:00 0° 80° (E) 2,370 1.1 -11.7°
